IU1FIL-3 Weather Reports


Display with metric or nautical units.
time (UTC)temp
F
wind
direction
speed
MPH
gust
MPH
rain 1hr
in
rain 24hr
in
rain mn
in
humidity
%
barometer
mb
20260506204751 57 0.0 0.0 0.00 0.00 0.00 10 1012.6
20260506203749 57 0.0 0.0 0.00 0.00 0.00 10 1012.6
20260506202746 58 0.0 0.0 0.00 0.00 0.00 10 1012.5
20260506201745 58 0.0 0.0 0.00 0.00 0.00 10 1012.5
20260506200743 57 0.0 0.0 0.00 0.00 0.00 10 1012.3
20260506195742 57 0.0 0.0 0.00 0.00 0.00 10 1012.2
20260506194740 58 0.0 0.0 0.00 0.00 0.00 10 1012.0
20260506193737 58 0.0 0.0 0.00 0.00 0.00 10 1011.9
20260506192736 58 0.0 0.0 0.00 0.00 0.00 10 1011.7
20260506191733 59 0.0 0.0 0.00 0.00 0.00 10 1011.4
20260506190732 59 0.0 0.0 0.00 0.00 0.00 10 1011.2
20260506185731 60 0.0 0.0 0.00 0.00 0.00 10 1010.8
20260506184729 60 0.0 0.0 0.00 0.00 0.00 10 1010.6
20260506183727 61 0.0 0.0 0.00 0.00 0.00 10 1010.4
20260506182725 61 0.0 0.0 0.00 0.00 0.00 10 1010.4
20260506181724 62 0.0 0.0 0.00 0.00 0.00 10 1010.2
20260506180722 63 0.0 0.0 0.00 0.00 0.00 10 1010.0
20260506175720 70 0.0 0.0 0.00 0.00 0.00 10 1009.3
20260506174718 72 0.0 0.0 0.00 0.00 0.00 10 1009.1
20260506173716 73 0.0 0.0 0.00 0.00 0.00 10 1008.8
20260506172714 75 0.0 0.0 0.00 0.00 0.00 10 1008.6
20260506171712 76 0.0 0.0 0.00 0.00 0.00 10 1008.7
20260506170711 74 0.0 0.0 0.00 0.00 0.00 10 1008.8
20260506165709 74 0.0 0.0 0.00 0.00 0.00 10 1008.7
20260506164707 75 0.0 0.0 0.00 0.00 0.00 10 1008.6
20260506163706 73 0.0 0.0 0.00 0.00 0.00 10 1008.8
20260506162704 73 0.0 0.0 0.00 0.00 0.00 10 1008.7
20260506161702 71 0.0 0.0 0.00 0.00 0.00 10 1008.8
20260506160700 72 0.0 0.0 0.00 0.00 0.00 10 1008.9
20260506155659 70 0.0 0.0 0.00 0.00 0.00 10 1009.1
20260506154657 70 0.0 0.0 0.00 0.00 0.00 10 1009.0
20260506153655 70 0.0 0.0 0.00 0.00 0.00 10 1009.0
20260506152653 71 0.0 0.0 0.00 0.00 0.00 10 1008.9
20260506151652 71 0.0 0.0 0.00 0.00 0.00 10 1008.9
20260506150651 71 0.0 0.0 0.00 0.00 0.00 10 1009.0
20260506145649 72 0.0 0.0 0.00 0.00 0.00 10 1009.0
20260506144647 72 0.0 0.0 0.00 0.00 0.00 10 1009.0
20260506143646 71 0.0 0.0 0.00 0.00 0.00 10 1009.1
20260506142644 71 0.0 0.0 0.00 0.00 0.00 10 1009.1
20260506141642 70 0.0 0.0 0.00 0.00 0.00 10 1009.2
20260506140640 70 0.0 0.0 0.00 0.00 0.00 10 1009.2
20260506135638 70 0.0 0.0 0.00 0.00 0.00 10 1009.3
20260506134636 69 0.0 0.0 0.00 0.00 0.00 10 1009.3
20260506133634 68 0.0 0.0 0.00 0.00 0.00 10 1009.6
20260506132632 68 0.0 0.0 0.00 0.00 0.00 10 1009.7
20260506131630 68 0.0 0.0 0.00 0.00 0.00 10 1009.7
20260506130628 67 0.0 0.0 0.00 0.00 0.00 10 1009.9
20260506125626 66 0.0 0.0 0.00 0.00 0.00 10 1010.1
20260506124624 66 0.0 0.0 0.00 0.00 0.00 10 1010.2
20260506123622 66 0.0 0.0 0.00 0.00 0.00 10 1010.1
20260506122621 66 0.0 0.0 0.00 0.00 0.00 10 1010.2
20260506121619 66 0.0 0.0 0.00 0.00 0.00 10 1010.1
20260506120617 66 0.0 0.0 0.00 0.00 0.00 10 1010.0
20260506115616 65 0.0 0.0 0.00 0.00 0.00 10 1009.9
20260506114614 65 0.0 0.0 0.00 0.00 0.00 10 1009.9
20260506113612 65 0.0 0.0 0.00 0.00 0.00 10 1010.1
20260506112610 65 0.0 0.0 0.00 0.00 0.00 10 1010.1
20260506111608 65 0.0 0.0 0.00 0.00 0.00 10 1010.0
20260506110605 65 0.0 0.0 0.00 0.00 0.00 10 1010.0
20260506105603 65 0.0 0.0 0.00 0.00 0.00 10 1010.1
20260506104602 65 0.0 0.0 0.00 0.00 0.00 10 1010.2
20260506103600 65 0.0 0.0 0.00 0.00 0.00 10 1010.2
20260506102558 65 0.0 0.0 0.00 0.00 0.00 10 1010.1
20260506101556 65 0.0 0.0 0.00 0.00 0.00 10 1010.3
20260506100554 64 0.0 0.0 0.00 0.00 0.00 10 1010.3
20260506095553 64 0.0 0.0 0.00 0.00 0.00 10 1010.2
20260506094551 64 0.0 0.0 0.00 0.00 0.00 10 1010.2
20260506093549 64 0.0 0.0 0.00 0.00 0.00 10 1010.4
20260506092548 63 0.0 0.0 0.00 0.00 0.00 10 1010.4
20260506091546 63 0.0 0.0 0.00 0.00 0.00 10 1010.5
20260506090544 63 0.0 0.0 0.00 0.00 0.00 10 1010.4
20260506085543 62 0.0 0.0 0.00 0.00 0.00 10 1010.5
20260506084541 62 0.0 0.0 0.00 0.00 0.00 10 1010.3
20260506083539 61 0.0 0.0 0.00 0.00 0.00 10 1010.5
20260506082537 62 0.0 0.0 0.00 0.00 0.00 10 1010.4
20260506081535 61 0.0 0.0 0.00 0.00 0.00 10 1010.5
20260506080534 59 0.0 0.0 0.00 0.00 0.00 10 1010.7
20260506073528 57 0.0 0.0 0.00 0.00 0.00 10 1010.9
20260506072527 56 0.0 0.0 0.00 0.00 0.00 10 1010.9
20260506071524 56 0.0 0.0 0.00 0.00 0.00 10 1010.9
20260506070523 55 0.0 0.0 0.00 0.00 0.00 10 1010.8
20260506062517 53 0.0 0.0 0.00 0.00 0.00 10 1011.1
20260506061514 53 0.0 0.0 0.00 0.00 0.00 10 1011.0
20260506060512 53 0.0 0.0 0.00 0.00 0.00 10 1010.9
20260506050501 52 0.0 0.0 0.00 0.00 0.00 10 1011.1
20260506044458 52 0.0 0.0 0.00 0.00 0.00 10 1011.1
20260506043456 52 0.0 0.0 0.00 0.00 0.00 10 1011.2
20260506042453 52 0.0 0.0 0.00 0.00 0.00 10 1011.1
20260506041452 52 0.0 0.0 0.00 0.00 0.00 10 1011.4
20260506040450 52 0.0 0.0 0.00 0.00 0.00 10 1012.0
20260506035449 51 0.0 0.0 0.00 0.00 0.00 10 1011.7
20260506034448 52 0.0 0.0 0.00 0.00 0.00 10 1011.3
20260506033445 52 0.0 0.0 0.00 0.00 0.00 10 1011.1
20260506032444 52 0.0 0.0 0.00 0.00 0.00 10 1011.2
20260506031442 53 0.0 0.0 0.00 0.00 0.00 10 1011.3
20260506030440 52 0.0 0.0 0.00 0.00 0.00 10 1011.3
20260506025438 53 0.0 0.0 0.00 0.00 0.00 10 1011.6
20260506024437 52 0.0 0.0 0.00 0.00 0.00 10 1011.6
20260506023435 52 0.0 0.0 0.00 0.00 0.00 10 1011.7
20260506022433 52 0.0 0.0 0.00 0.00 0.00 10 1011.7
20260506021431 52 0.0 0.0 0.00 0.00 0.00 10 1012.1
20260506020429 52 0.0 0.0 0.00 0.00 0.00 10 1012.2
20260506015427 52 0.0 0.0 0.00 0.00 0.00 10 1012.1
20260506014425 53 0.0 0.0 0.00 0.00 0.00 10 1012.1
20260506013424 52 0.0 0.0 0.00 0.00 0.00 10 1012.2
20260506012422 52 0.0 0.0 0.00 0.00 0.00 10 1012.4
20260506011421 52 0.0 0.0 0.00 0.00 0.00 10 1012.1
20260506010419 53 0.0 0.0 0.00 0.00 0.00 10 1012.0
20260506005417 53 0.0 0.0 0.00 0.00 0.00 10 1012.1
20260506004415 53 0.0 0.0 0.00 0.00 0.00 10 1012.4
20260506003412 53 0.0 0.0 0.00 0.00 0.00 10 1012.4
20260506002411 53 0.0 0.0 0.00 0.00 0.00 10 1012.6
20260506001409 53 0.0 0.0 0.00 0.00 0.00 10 1012.8
20260506000408 53 0.0 0.0 0.00 0.00 0.00 10 1013.3
20260505235405 53 0.0 0.0 0.00 0.00 0.00 10 1013.6
20260505234403 53 0.0 0.0 0.00 0.00 0.00 10 1013.8
20260505233401 54 0.0 0.0 0.00 0.00 0.00 10 1014.3
20260505232359 54 0.0 0.0 0.00 0.00 0.00 10 1014.1
20260505231357 54 0.0 0.0 0.00 0.00 0.00 10 1013.8
20260505230355 54 0.0 0.0 0.00 0.00 0.00 10 1014.0
20260505225353 54 0.0 0.0 0.00 0.00 0.00 10 1013.6
20260505224350 54 0.0 0.0 0.00 0.00 0.00 10 1013.6
20260505223349 55 0.0 0.0 0.00 0.00 0.00 10 1013.9
20260505222348 54 0.0 0.0 0.00 0.00 0.00 10 1014.1
20260505221345 54 0.0 0.0 0.00 0.00 0.00 10 1014.3
20260505220343 54 0.0 0.0 0.00 0.00 0.00 10 1014.4
20260505215824 54 0.0 0.0 0.00 0.00 0.00 10 1014.6
20260505214822 54 0.0 0.0 0.00 0.00 0.00 10 1015.1
20260505213820 54 0.0 0.0 0.00 0.00 0.00 10 1015.3
20260505212818 55 0.0 0.0 0.00 0.00 0.00 10 1015.2
20260505211817 54 0.0 0.0 0.00 0.00 0.00 10 1015.3
20260505210815 54 0.0 0.0 0.00 0.00 0.00 10 1015.3
20260505205813 54 0.0 0.0 0.00 0.00 0.00 10 1015.2